Time,TemperatureF,DewpointF,PressureIn,WindDirection,WindDirectionDegrees,WindSpeedMPH,WindSpeedGustMPH,Humidity,HourlyPrecipIn,Conditions,Clouds,dailyrainin,SolarRadiationWatts/m^2,SoftwareType,DateUTC
2013-01-03 00:02:00,-2.0,-8.0,-100.00,NW,307,2.0,4.0,74,0.00,,,0.00,0.000000,,2013-01-03 07:02:00,
2013-01-03 00:33:00,-5.0,-13.0,-100.00,SW,218,0.0,5.0,69,0.00,,,0.00,0.000000,,2013-01-03 07:33:00,
2013-01-03 00:43:00,-5.0,-13.0,-100.00,SW,218,0.0,5.0,69,0.00,,,0.00,0.000000,,2013-01-03 07:43:00,
2013-01-03 00:53:00,-5.0,-13.0,-100.00,SW,218,0.0,5.0,69,0.00,,,0.00,0.000000,,2013-01-03 07:53:00,
2013-01-03 01:02:00,-5.0,-13.0,-100.00,SW,218,0.0,5.0,69,0.00,,,0.00,0.000000,,2013-01-03 08:02:00,
2013-01-03 01:33:00,-8.0,-14.0,-100.00,NNW,330,0.0,4.0,74,0.00,,,0.00,0.000000,,2013-01-03 08:33:00,
2013-01-03 01:43:00,-8.0,-14.0,-100.00,NNW,330,0.0,4.0,74,0.00,,,0.00,0.000000,,2013-01-03 08:43:00,
2013-01-03 01:53:00,-8.0,-14.0,-100.00,NNW,330,0.0,4.0,74,0.00,,,0.00,0.000000,,2013-01-03 08:53:00,
2013-01-03 02:02:00,-8.0,-14.0,-100.00,NNW,330,0.0,4.0,74,0.00,,,0.00,0.000000,,2013-01-03 09:02:00,
2013-01-03 02:34:00,-9.0,-15.0,-100.00,WSW,244,1.0,4.0,75,0.00,,,0.00,0.000000,,2013-01-03 09:34:00,
2013-01-03 02:43:00,-9.0,-15.0,-100.00,WSW,244,1.0,4.0,75,0.00,,,0.00,0.000000,,2013-01-03 09:43:00,
2013-01-03 02:53:00,-9.0,-15.0,-100.00,WSW,244,1.0,4.0,75,0.00,,,0.00,0.000000,,2013-01-03 09:53:00,
2013-01-03 03:02:00,-9.0,-15.0,-100.00,WSW,244,1.0,4.0,75,0.00,,,0.00,0.000000,,2013-01-03 10:02:00,
2013-01-03 03:33:00,-9.0,-16.0,-100.00,WSW,248,0.0,6.0,71,0.00,,,0.00,0.000000,,2013-01-03 10:33:00,
2013-01-03 03:43:00,-9.0,-16.0,-100.00,WSW,248,0.0,6.0,71,0.00,,,0.00,0.000000,,2013-01-03 10:43:00,
2013-01-03 03:53:00,-9.0,-16.0,-100.00,WSW,248,0.0,6.0,71,0.00,,,0.00,0.000000,,2013-01-03 10:53:00,
2013-01-03 04:02:00,-9.0,-16.0,-100.00,WSW,248,0.0,6.0,71,0.00,,,0.00,0.000000,,2013-01-03 11:02:00,
2013-01-03 04:33:00,-12.0,-19.0,-100.00,NW,313,1.0,5.0,71,0.00,,,0.00,0.000000,,2013-01-03 11:33:00,
2013-01-03 04:43:00,-12.0,-19.0,-100.00,NW,313,1.0,5.0,71,0.00,,,0.00,0.000000,,2013-01-03 11:43:00,
2013-01-03 04:53:00,-12.0,-19.0,-100.00,NW,313,1.0,5.0,71,0.00,,,0.00,0.000000,,2013-01-03 11:53:00,
2013-01-03 05:02:00,-12.0,-19.0,-100.00,NW,313,1.0,5.0,71,0.00,,,0.00,0.000000,,2013-01-03 12:02:00,
2013-01-03 05:33:00,-13.0,-20.0,-100.00,WNW,302,2.0,5.0,70,0.00,,,0.00,0.000000,,2013-01-03 12:33:00,
2013-01-03 05:43:00,-13.0,-20.0,-100.00,WNW,302,2.0,5.0,70,0.00,,,0.00,0.000000,,2013-01-03 12:43:00,
2013-01-03 05:53:00,-13.0,-20.0,-100.00,WNW,302,2.0,5.0,70,0.00,,,0.00,0.000000,,2013-01-03 12:53:00,
2013-01-03 06:02:00,-13.0,-20.0,-100.00,WNW,302,2.0,5.0,70,0.00,,,0.00,0.000000,,2013-01-03 13:02:00,
2013-01-03 06:33:00,-14.0,-21.0,-100.00,NW,311,3.0,5.0,69,0.00,,,0.00,0.000000,,2013-01-03 13:33:00,
2013-01-03 06:43:00,-14.0,-21.0,-100.00,NW,311,3.0,5.0,69,0.00,,,0.00,0.000000,,2013-01-03 13:43:00,
2013-01-03 06:53:00,-14.0,-21.0,-100.00,NW,311,3.0,5.0,69,0.00,,,0.00,0.000000,,2013-01-03 13:53:00,
2013-01-03 07:03:00,-14.0,-21.0,-100.00,NW,311,3.0,5.0,69,0.00,,,0.00,0.000000,,2013-01-03 14:03:00,
2013-01-03 07:33:00,-13.0,-20.0,-100.00,WSW,250,1.0,5.0,69,0.00,,,0.00,0.000000,,2013-01-03 14:33:00,
2013-01-03 07:43:00,-13.0,-20.0,-100.00,WSW,250,1.0,5.0,69,0.00,,,0.00,0.000000,,2013-01-03 14:43:00,
2013-01-03 07:53:00,-13.0,-20.0,-100.00,WSW,250,1.0,5.0,69,0.00,,,0.00,0.000000,,2013-01-03 14:53:00,
2013-01-03 08:03:00,-13.0,-20.0,-100.00,WSW,250,1.0,5.0,69,0.00,,,0.00,0.000000,,2013-01-03 15:03:00,
2013-01-03 08:34:00,-8.0,-17.0,-100.00,WNW,298,2.0,6.0,65,0.00,,,0.00,25.000000,,2013-01-03 15:34:00,
2013-01-03 08:43:00,-8.0,-17.0,-100.00,WNW,298,2.0,6.0,65,0.00,,,0.00,25.000000,,2013-01-03 15:43:00,
2013-01-03 08:53:00,-8.0,-17.0,-100.00,WNW,298,2.0,6.0,65,0.00,,,0.00,25.000000,,2013-01-03 15:53:00,
2013-01-03 09:03:00,-8.0,-17.0,-100.00,WNW,298,2.0,6.0,65,0.00,,,0.00,25.000000,,2013-01-03 16:03:00,
2013-01-03 09:34:00,2.0,-9.0,-100.00,NE,51,2.0,5.0,59,0.00,,,0.00,202.000000,,2013-01-03 16:34:00,
2013-01-03 09:43:00,2.0,-9.0,-100.00,NE,51,2.0,5.0,59,0.00,,,0.00,202.000000,,2013-01-03 16:43:00,
2013-01-03 09:53:00,2.0,-9.0,-100.00,NE,51,2.0,5.0,59,0.00,,,0.00,202.000000,,2013-01-03 16:53:00,
2013-01-03 10:03:00,2.0,-9.0,-100.00,NE,51,2.0,5.0,59,0.00,,,0.00,202.000000,,2013-01-03 17:03:00,
2013-01-03 10:33:00,13.0,-4.0,-100.00,NE,43,2.0,4.0,46,0.00,,,0.00,375.000000,,2013-01-03 17:33:00,
2013-01-03 10:43:00,13.0,-4.0,-100.00,NE,43,2.0,4.0,46,0.00,,,0.00,375.000000,,2013-01-03 17:43:00,
2013-01-03 10:53:00,13.0,-4.0,-100.00,NE,43,2.0,4.0,46,0.00,,,0.00,375.000000,,2013-01-03 17:53:00,
2013-01-03 11:03:00,13.0,-4.0,-100.00,NE,43,2.0,4.0,46,0.00,,,0.00,375.000000,,2013-01-03 18:03:00,
2013-01-03 11:33:00,19.0,-2.0,-100.00,ENE,62,2.0,4.0,38,0.00,,,0.00,531.000000,,2013-01-03 18:33:00,
2013-01-03 11:43:00,19.0,-2.0,-100.00,ENE,62,2.0,4.0,38,0.00,,,0.00,531.000000,,2013-01-03 18:43:00,
2013-01-03 11:53:00,19.0,-2.0,-100.00,ENE,62,2.0,4.0,38,0.00,,,0.00,531.000000,,2013-01-03 18:53:00,
2013-01-03 12:03:00,19.0,-2.0,-100.00,ENE,62,2.0,4.0,38,0.00,,,0.00,531.000000,,2013-01-03 19:03:00,
2013-01-03 12:56:00,26.0,-9.0,-100.00,SSE,152,3.0,4.0,21,0.00,,,0.00,608.000000,,2013-01-03 19:56:00,
2013-01-03 13:03:00,26.0,-9.0,-100.00,SSE,152,3.0,4.0,21,0.00,,,0.00,608.000000,,2013-01-03 20:03:00,
2013-01-03 13:33:00,28.0,-10.0,-100.00,NNW,331,3.0,5.0,18,0.00,,,0.00,613.000000,,2013-01-03 20:33:00,
2013-01-03 13:43:00,28.0,-10.0,-100.00,NNW,331,3.0,5.0,18,0.00,,,0.00,613.000000,,2013-01-03 20:43:00,
2013-01-03 13:53:00,28.0,-10.0,-100.00,NNW,331,3.0,5.0,18,0.00,,,0.00,613.000000,,2013-01-03 20:53:00,
2013-01-03 14:02:00,28.0,-10.0,-100.00,NNW,331,3.0,5.0,18,0.00,,,0.00,613.000000,,2013-01-03 21:02:00,
2013-01-03 14:38:00,28.0,-14.0,-100.00,NNW,334,4.0,7.0,15,0.00,,,0.00,548.000000,,2013-01-03 21:38:00,
2013-01-03 14:50:00,28.0,-14.0,-100.00,NNW,334,4.0,7.0,15,0.00,,,0.00,548.000000,,2013-01-03 21:50:00,
2013-01-03 15:03:00,28.0,-14.0,-100.00,NNW,334,4.0,7.0,15,0.00,,,0.00,548.000000,,2013-01-03 22:03:00,
2013-01-03 15:33:00,27.0,-13.0,-100.00,North,3,7.0,10.0,16,0.00,,,0.00,421.000000,,2013-01-03 22:33:00,
2013-01-03 15:43:00,27.0,-13.0,-100.00,North,3,7.0,10.0,16,0.00,,,0.00,421.000000,,2013-01-03 22:43:00,
2013-01-03 15:52:00,27.0,-13.0,-100.00,North,3,7.0,10.0,16,0.00,,,0.00,421.000000,,2013-01-03 22:52:00,
2013-01-03 16:02:00,27.0,-13.0,-100.00,North,3,7.0,10.0,16,0.00,,,0.00,421.000000,,2013-01-03 23:02:00,
2013-01-03 16:33:00,23.0,-13.0,-100.00,North,359,7.0,15.0,19,0.00,,,0.00,243.000000,,2013-01-03 23:33:00,
2013-01-03 16:43:00,23.0,-13.0,-100.00,North,359,7.0,15.0,19,0.00,,,0.00,243.000000,,2013-01-03 23:43:00,
2013-01-03 16:53:00,23.0,-13.0,-100.00,North,359,7.0,15.0,19,0.00,,,0.00,243.000000,,2013-01-03 23:53:00,
2013-01-03 17:03:00,23.0,-13.0,-100.00,North,359,7.0,15.0,19,0.00,,,0.00,243.000000,,2013-01-04 00:03:00,
2013-01-03 17:33:00,17.0,-13.0,-100.00,NNW,347,6.0,12.0,25,0.00,,,0.00,11.000000,,2013-01-04 00:33:00,
2013-01-03 17:42:00,17.0,-13.0,-100.00,NNW,347,6.0,12.0,25,0.00,,,0.00,11.000000,,2013-01-04 00:42:00,
2013-01-03 17:53:00,17.0,-13.0,-100.00,NNW,347,6.0,12.0,25,0.00,,,0.00,11.000000,,2013-01-04 00:53:00,
2013-01-03 18:02:00,17.0,-13.0,-100.00,NNW,347,6.0,12.0,25,0.00,,,0.00,11.000000,,2013-01-04 01:02:00,
2013-01-03 18:33:00,13.0,-11.0,-100.00,NNW,339,3.0,11.0,33,0.00,,,0.00,0.000000,,2013-01-04 01:33:00,
2013-01-03 18:42:00,13.0,-11.0,-100.00,NNW,339,3.0,11.0,33,0.00,,,0.00,0.000000,,2013-01-04 01:42:00,
2013-01-03 18:52:00,13.0,-11.0,-100.00,NNW,339,3.0,11.0,33,0.00,,,0.00,0.000000,,2013-01-04 01:52:00,
2013-01-03 19:02:00,13.0,-11.0,-100.00,NNW,339,3.0,11.0,33,0.00,,,0.00,0.000000,,2013-01-04 02:02:00,
2013-01-03 19:33:00,11.0,-9.0,-100.00,NNW,342,5.0,9.0,39,0.00,,,0.00,0.000000,,2013-01-04 02:33:00,
2013-01-03 19:42:00,11.0,-9.0,-100.00,NNW,342,5.0,9.0,39,0.00,,,0.00,0.000000,,2013-01-04 02:42:00,
2013-01-03 19:53:00,11.0,-9.0,-100.00,NNW,342,5.0,9.0,39,0.00,,,0.00,0.000000,,2013-01-04 02:53:00,
2013-01-03 20:02:00,11.0,-9.0,-100.00,NNW,342,5.0,9.0,39,0.00,,,0.00,0.000000,,2013-01-04 03:02:00,
2013-01-03 20:33:00,6.0,-9.0,-100.00,NNW,330,1.0,9.0,49,0.00,,,0.00,0.000000,,2013-01-04 03:33:00,
2013-01-03 20:43:00,6.0,-9.0,-100.00,NNW,330,1.0,9.0,49,0.00,,,0.00,0.000000,,2013-01-04 03:43:00,
2013-01-03 20:53:00,6.0,-9.0,-100.00,NNW,330,1.0,9.0,49,0.00,,,0.00,0.000000,,2013-01-04 03:53:00,
2013-01-03 21:02:00,6.0,-9.0,-100.00,NNW,330,1.0,9.0,49,0.00,,,0.00,0.000000,,2013-01-04 04:02:00,
2013-01-03 21:32:00,6.0,-8.0,-100.00,NW,318,2.0,3.0,51,0.00,,,0.00,0.000000,,2013-01-04 04:32:00,
2013-01-03 21:42:00,6.0,-8.0,-100.00,NW,318,2.0,3.0,51,0.00,,,0.00,0.000000,,2013-01-04 04:42:00,
2013-01-03 21:52:00,6.0,-8.0,-100.00,NW,318,2.0,3.0,51,0.00,,,0.00,0.000000,,2013-01-04 04:52:00,
2013-01-03 22:03:00,6.0,-8.0,-100.00,NW,318,2.0,3.0,51,0.00,,,0.00,0.000000,,2013-01-04 05:03:00,
2013-01-03 22:33:00,3.0,-9.0,-100.00,SSW,199,1.0,3.0,56,0.00,,,0.00,0.000000,,2013-01-04 05:33:00,
2013-01-03 22:42:00,3.0,-9.0,-100.00,SSW,199,1.0,3.0,56,0.00,,,0.00,0.000000,,2013-01-04 05:42:00,
2013-01-03 22:53:00,3.0,-9.0,-100.00,SSW,199,1.0,3.0,56,0.00,,,0.00,0.000000,,2013-01-04 05:53:00,
2013-01-03 23:02:00,3.0,-9.0,-100.00,SSW,199,1.0,3.0,56,0.00,,,0.00,0.000000,,2013-01-04 06:02:00,
2013-01-03 23:33:00,4.0,-10.0,-100.00,NNE,15,2.0,3.0,52,0.00,,,-99.99,0.000000,,2013-01-04 06:33:00,
2013-01-03 23:43:00,4.0,-10.0,-100.00,NNE,15,2.0,3.0,52,0.00,,,-99.99,0.000000,,2013-01-04 06:43:00,
2013-01-03 23:52:00,4.0,-10.0,-100.00,NNE,15,2.0,3.0,52,0.00,,,-99.99,0.000000,,2013-01-04 06:52:00,